Showing default

GGSE 5, 2834

Orbit data source: Space-Track

GGSE 5, 2834 is an American payload satellite in LEO that was launched on Wed, 31 May 1967 UTC via a THOR SLV-2 AGENA D launch vehicle from the Air Force Western Test Range (AFWTR). Payload-class satellites include a variety of spacecraft equipped with specific instruments for various scientific and technological missions. These include communications satellites like Starlink; space stations such as the ISS; scientific satellites like the Hubble; Earth observation satellites from companies like Planet Labs, Umbra, and HawkEye 360; GPS; miniature CubeSats for education and research; and military/defense satellites.

Loading next visibility...
Identifier
2834, 1967-053D
Orbit
LEO
Last TLE update
12 hours ago
Origin
Manufacturer
NRL
Mission
Defense Technology
Bus & Motor
NRL MULTI, Unknown motor
Mass
105 kg wet, 105 kg dry
Launch date (UTC)
1967-05-31 (58 years ago)
Launch vehicle
THOR SLV-2 AGENA D
Launch site
Air Force Western Test Range (AFWTR)
Object type
Payload
Rocket body
Debris
Shape & HBR
Ell + 2 Ant, 18 m
Radar Cross Section
1.247 m², Medium (>0.1 m² and < 1m²)

Expand to show TLE details & history

TLE from 12 hours ago
0 GGSE 5
1 02834U 67053D   25189.85409841 -.00000031  00000-0  16396-4 0  9996
2 02834  69.9720 148.1823 0010005 288.3548  71.6469 13.96133563958211
Epoch: 2025-07-08T20:29Z
TLE epoch observation values (Epoch: 2025-07-08T20:29:54.102Z)
Latitude
-0.00003°
Longitude
-86.33625°
Altitude
907.236 km
Speed
7.4 km/s
True Right ascension
09h 52m 43s
True Declination
0° 00' 00"
Sunlit
Object was in daylight at epoch
Visualization orbit readout
Latitude
-61.62535°
Longitude
134.80938°
Altitude
924.589 km
Speed
7.392 km/s
Apparent Right ascension
05h 21m 16s
Apparent Declination
-65° 32' 29"
Sunlit
Object is in daylight
Visualization observer readout
Local Sidereal Time
20:09:56
Azimuth
150.99° SSE
Elevation
-55.029°
Doppler factor
1
Orbital elements
Apogee altitude
912.548 km
Perigee altitude
897.974 km
Semi-major axis
7,283.398 km
Eccentricity
0.001
Inclination
69.972°
RAAN
148.1823°
Arg. of periapsis
288.3548°
True anomaly
Unknown
Mean anomaly
71.6469°
Eccentric anomaly
Unknown
Mean motion
3.49174 °/min
Orbital period
103.1 mins
BSTAR
0.000016396
Loading maneuver chart data...
Loading SW <> Apogee altitude chart data...
Loading historical data...
Loading historical data...
Loading historical data...
Loading historical data...
Loading historical data...
Loading historical data...
Loading historical data...

GGSE 5 Visibility forecast

Observer location: undefined°, undefined°

Span
Click to sort rows by Start time (UTC) header in descending order
Start Az.
Max El. time (UTC)
Max El. Az.
Max El.
End time (UTC)
End Az.
10 mins2025-07-09 09:07:21.566Z317.86° NNW2025-07-09 09:12:21.566Z249.115° W32.776°2025-07-09 09:17:21.566Z187.442° SSW
10 mins2025-07-09 22:25:21.566Z192.049° SSW2025-07-09 22:29:21.566Z121.109° SE43.62°2025-07-09 22:35:21.566Z28.641° NE
6 mins2025-07-10 00:13:21.566Z281.942° WNW2025-07-10 00:15:21.566Z306.168° NW18.529°2025-07-10 00:19:21.566Z351.672° N
9 mins2025-07-10 07:27:21.566Z355.956° N2025-07-10 07:31:21.566Z57.728° ENE33.948°2025-07-10 07:36:21.566Z126.507° SE
|